Location: *
(90.0000°N, 180.0000°W)
Time: 13:59:21
(UTC+01:00)

Okean O Rocket - Visible Passes

Search period start: 30 October 2014 00:00
Search period end: 09 November 2014 00:00
Orbit: 626 x 646 km, 98.0° (Epoch: 29 October)

Date Brightness Start Highest point End Pass type
(mag) Time Alt. Az. Time Alt. Az. Time Alt. Az.
30 Oct 3.4 00:40:35 10° SSE 00:44:36 31° SW 00:48:37 10° WNW visible
30 Oct 3.4 02:18:05 10° S 02:22:06 31° WSW 02:26:07 10° NW visible
30 Oct 3.4 03:55:35 10° SSW 03:59:36 31° W 04:03:37 10° NNW visible
30 Oct 3.4 05:33:05 10° SW 05:37:05 31° WNW 05:41:07 10° N visible
30 Oct 3.4 07:10:35 10° WSW 07:14:35 31° NW 07:18:37 10° NNE visible
30 Oct 3.4 08:48:04 10° WNW 08:52:05 31° NNW 08:56:07 10° NE visible
30 Oct 3.4 10:25:34 10° NW 10:29:35 31° N 10:33:37 10° ENE visible
30 Oct 3.4 12:03:04 10° NNW 12:07:05 31° NE 12:11:07 10° E visible
30 Oct 3.4 13:40:34 10° N 13:44:35 31° ENE 13:48:37 10° ESE visible
30 Oct 3.4 15:18:04 10° NNE 15:22:05 31° E 15:26:07 10° SSE visible
30 Oct 3.4 16:55:34 10° NE 16:59:35 31° ESE 17:03:37 10° S visible
30 Oct 3.4 18:33:04 10° ENE 18:37:05 31° SE 18:41:06 10° SSW visible
30 Oct 3.4 20:10:34 10° E 20:14:35 31° SSE 20:18:36 10° SW visible
30 Oct 3.4 21:48:04 10° ESE 21:52:05 31° S 21:56:06 10° WSW visible
30 Oct 3.4 23:25:34 10° SE 23:29:35 31° SSW 23:33:36 10° W visible
31 Oct 3.4 01:03:04 10° SSE 01:07:05 31° SW 01:11:06 10° WNW visible
31 Oct 3.4 02:40:34 10° S 02:44:35 31° WSW 02:48:36 10° NW visible
31 Oct 3.4 04:18:03 10° SW 04:22:04 31° W 04:26:06 10° NNW visible
31 Oct 3.4 05:55:33 10° WSW 05:59:34 31° WNW 06:03:36 10° N visible
31 Oct 3.4 07:33:03 10° W 07:37:04 31° NNW 07:41:06 10° NNE visible
31 Oct 3.4 09:10:33 10° WNW 09:14:34 31° N 09:18:36 10° NE visible
31 Oct 3.4 10:48:03 10° NW 10:52:04 31° NNE 10:56:06 10° E visible
31 Oct 3.4 12:25:33 10° NNW 12:29:34 31° NE 12:33:36 10° ESE visible
31 Oct 3.4 14:03:03 10° N 14:07:04 31° ENE 14:11:06 10° SE visible
31 Oct 3.4 15:40:33 10° NNE 15:44:34 31° E 15:48:36 10° SSE visible
31 Oct 3.4 17:18:03 10° NE 17:22:04 31° ESE 17:26:05 10° S visible
31 Oct 3.4 18:55:33 10° ENE 18:59:34 31° SE 19:03:35 10° SSW visible
31 Oct 3.4 20:33:03 10° E 20:37:04 31° SSE 20:41:05 10° SW visible
31 Oct 3.4 22:10:33 10° ESE 22:14:34 31° S 22:18:35 10° WSW visible
31 Oct 3.4 23:48:02 10° SSE 23:52:04 31° SSW 23:56:05 10° W visible
01 Nov 3.4 01:25:32 10° S 01:29:33 31° SW 01:33:35 10° WNW visible
01 Nov 3.4 03:03:02 10° SSW 03:07:03 31° W 03:11:05 10° NW visible
01 Nov 3.4 04:40:32 10° SW 04:44:33 31° WNW 04:48:35 10° NNW visible
01 Nov 3.4 06:18:02 10° WSW 06:22:03 31° NW 06:26:05 10° NNE visible
01 Nov 3.4 07:55:32 10° W 07:59:33 31° NNW 08:03:35 10° NE visible
01 Nov 3.4 09:33:02 10° WNW 09:37:03 31° N 09:41:05 10° ENE visible
01 Nov 3.4 11:10:32 10° NW 11:14:33 31° NNE 11:18:35 10° E visible
01 Nov 3.4 12:48:02 10° NNW 12:52:03 31° NE 12:56:05 10° ESE visible
01 Nov 3.4 14:25:32 10° N 14:29:33 31° ENE 14:33:35 10° SE visible
01 Nov 3.4 16:03:02 10° NNE 16:07:03 31° E 16:11:04 10° SSE visible
01 Nov 3.4 17:40:32 10° NE 17:44:33 31° ESE 17:48:34 10° S visible
01 Nov 3.4 19:18:01 10° E 19:22:03 31° SE 19:26:04 10° SSW visible
01 Nov 3.4 20:55:31 10° ESE 20:59:33 31° SSE 21:03:34 10° SW visible
01 Nov 3.4 22:33:01 10° SE 22:37:02 31° SSW 22:41:04 10° WSW visible
02 Nov 3.4 00:10:31 10° SSE 00:14:32 31° SW 00:18:34 10° W visible
02 Nov 3.4 01:48:01 10° S 01:52:02 31° WSW 01:56:04 10° NW visible
02 Nov 3.4 03:25:31 10° SSW 03:29:32 31° W 03:33:34 10° NNW visible
02 Nov 3.4 05:03:01 10° SW 05:07:02 31° WNW 05:11:04 10° N visible
02 Nov 3.4 06:40:31 10° WSW 06:44:32 31° NW 06:48:34 10° NNE visible
02 Nov 3.4 08:18:01 10° W 08:22:02 31° NNW 08:26:04 10° NE visible
02 Nov 3.4 09:55:31 10° WNW 09:59:32 31° N 10:03:34 10° ENE visible
02 Nov 3.4 11:33:01 10° NW 11:37:02 31° NNE 11:41:03 10° E visible
02 Nov 3.4 13:10:30 10° NNW 13:14:32 31° NE 13:18:33 10° ESE visible
02 Nov 3.4 14:48:00 10° NNE 14:52:02 31° ENE 14:56:03 10° SE visible
02 Nov 3.4 16:25:30 10° NE 16:29:32 31° E 16:33:33 10° SSE visible
02 Nov 3.4 18:03:00 10° ENE 18:07:01 31° SE 18:11:03 10° S visible
02 Nov 3.4 19:40:30 10° E 19:44:31 31° SSE 19:48:33 10° SSW visible
02 Nov 3.4 21:18:00 10° ESE 21:22:01 31° S 21:26:03 10° WSW visible
02 Nov 3.4 22:55:30 10° SE 22:59:31 31° SSW 23:03:33 10° W visible
03 Nov 3.4 00:33:00 10° SSE 00:37:01 31° SW 00:41:03 10° WNW visible
03 Nov 3.4 02:10:30 10° S 02:14:31 31° WSW 02:18:33 10° NW visible
03 Nov 3.4 03:48:00 10° SSW 03:52:01 31° W 03:56:03 10° NNW visible
03 Nov 3.4 05:25:30 10° SW 05:29:31 31° WNW 05:33:33 10° N visible
03 Nov 3.4 07:02:59 10° WSW 07:07:01 31° NW 07:11:02 10° NNE visible
03 Nov 3.4 08:40:29 10° W 08:44:31 31° NNW 08:48:32 10° NE visible
03 Nov 3.4 10:17:59 10° NW 10:22:01 31° N 10:26:02 10° ENE visible
03 Nov 3.4 11:55:29 10° NNW 11:59:30 31° NNE 12:03:32 10° E visible
03 Nov 3.4 13:32:59 10° N 13:37:00 31° ENE 13:41:02 10° ESE visible
03 Nov 3.4 15:10:29 10° NNE 15:14:30 31° E 15:18:32 10° SE visible
03 Nov 3.4 16:47:59 10° NE 16:52:00 31° ESE 16:56:02 10° S visible
03 Nov 3.4 18:25:29 10° ENE 18:29:30 31° SE 18:33:32 10° SSW visible
03 Nov 3.4 20:02:59 10° E 20:07:00 31° SSE 20:11:02 10° SW visible
03 Nov 3.4 21:40:29 10° ESE 21:44:30 31° S 21:48:32 10° WSW visible
03 Nov 3.4 23:17:58 10° SE 23:22:00 31° SSW 23:26:02 10° W visible
04 Nov 3.4 00:55:28 10° SSE 00:59:30 31° SW 01:03:31 10° WNW visible
04 Nov 3.4 02:32:58 10° S 02:37:00 31° WSW 02:41:01 10° NW visible
04 Nov 3.4 04:10:28 10° SSW 04:14:30 31° W 04:18:31 10° NNW visible
04 Nov 3.4 05:47:58 10° WSW 05:51:59 31° WNW 05:56:01 10° N visible
04 Nov 3.4 07:25:28 10° W 07:29:29 31° NW 07:33:31 10° NNE visible
04 Nov 3.4 09:02:58 10° WNW 09:06:59 31° N 09:11:01 10° NE visible
04 Nov 3.4 10:40:28 10° NW 10:44:29 31° NNE 10:48:31 10° ENE visible
04 Nov 3.4 12:17:58 10° NNW 12:21:59 31° NE 12:26:01 10° ESE visible
04 Nov 3.4 13:55:28 10° N 13:59:29 31° ENE 14:03:31 10° SE visible
04 Nov 3.4 15:32:57 10° NNE 15:36:59 31° E 15:41:01 10° SSE visible
04 Nov 3.4 17:10:27 10° NE 17:14:29 31° ESE 17:18:31 10° S visible
04 Nov 3.4 18:47:57 10° ENE 18:51:59 31° SE 18:56:00 10° SSW visible
04 Nov 3.4 20:25:27 10° E 20:29:29 31° SSE 20:33:30 10° SW visible
04 Nov 3.4 22:02:57 10° ESE 22:06:58 31° S 22:11:00 10° WSW visible
04 Nov 3.4 23:40:27 10° SE 23:44:28 31° SSW 23:48:30 10° W visible
05 Nov 3.4 01:17:57 10° S 01:21:58 31° SW 01:26:00 10° WNW visible
05 Nov 3.4 02:55:27 10° SSW 02:59:28 31° WSW 03:03:30 10° NW visible
05 Nov 3.4 04:32:57 10° SW 04:36:58 31° WNW 04:41:00 10° NNW visible
05 Nov 3.4 06:10:26 10° WSW 06:14:28 31° NW 06:18:30 10° N visible
05 Nov 3.4 07:47:56 10° W 07:51:58 31° NNW 07:56:00 10° NE visible
05 Nov 3.4 09:25:26 10° WNW 09:29:28 31° N 09:33:30 10° ENE visible
05 Nov 3.4 11:02:56 10° NW 11:06:58 31° NNE 11:10:59 10° E visible
05 Nov 3.4 12:40:26 10° NNW 12:44:28 31° NE 12:48:29 10° ESE visible
05 Nov 3.4 14:17:56 10° N 14:21:57 31° ENE 14:25:59 10° SE visible
05 Nov 3.4 15:55:26 10° NNE 15:59:27 31° E 16:03:29 10° SSE visible
05 Nov 3.4 17:32:56 10° NE 17:36:57 31° ESE 17:40:59 10° S visible
05 Nov 3.4 19:10:26 10° ENE 19:14:27 31° SE 19:18:29 10° SSW visible
05 Nov 3.4 20:47:56 10° ESE 20:51:57 31° SSE 20:55:59 10° SW visible
05 Nov 3.4 22:25:25 10° SE 22:29:27 31° S 22:33:29 10° WSW visible
06 Nov 3.4 00:02:55 10° SSE 00:06:57 31° SW 00:10:59 10° W visible
06 Nov 3.4 01:40:25 10° S 01:44:27 31° WSW 01:48:29 10° WNW visible
06 Nov 3.4 03:17:55 10° SSW 03:21:57 31° W 03:25:58 10° NNW visible
06 Nov 3.4 04:55:25 10° SW 04:59:27 31° WNW 05:03:28 10° N visible
06 Nov 3.4 06:32:55 10° WSW 06:36:56 31° NW 06:40:58 10° NNE visible
06 Nov 3.4 08:10:25 10° W 08:14:26 31° NNW 08:18:28 10° NE visible
06 Nov 3.4 09:47:55 10° WNW 09:51:56 31° N 09:55:58 10° ENE visible
06 Nov 3.4 11:25:25 10° NW 11:29:26 31° NNE 11:33:28 10° E visible
06 Nov 3.4 13:02:54 10° NNW 13:06:56 31° NE 13:10:58 10° ESE visible
06 Nov 3.4 14:40:24 10° N 14:44:26 31° ENE 14:48:28 10° SE visible
06 Nov 3.4 16:17:54 10° NE 16:21:56 31° E 16:25:58 10° SSE visible
06 Nov 3.4 17:55:24 10° ENE 17:59:26 31° ESE 18:03:27 10° S visible
06 Nov 3.4 19:32:54 10° E 19:36:56 31° SSE 19:40:57 10° SSW visible
06 Nov 3.4 21:10:24 10° ESE 21:14:25 31° S 21:18:27 10° SW visible
06 Nov 3.4 22:47:54 10° SE 22:51:55 31° SSW 22:55:57 10° W visible
07 Nov 3.4 00:25:24 10° SSE 00:29:25 31° SW 00:33:27 10° WNW visible
07 Nov 3.4 02:02:54 10° S 02:06:55 31° WSW 02:10:57 10° NW visible
07 Nov 3.4 03:40:23 10° SSW 03:44:25 31° W 03:48:27 10° NNW visible
07 Nov 3.4 05:17:53 10° SW 05:21:55 31° WNW 05:25:57 10° N visible
07 Nov 3.4 06:55:23 10° WSW 06:59:25 31° NW 07:03:27 10° NNE visible
07 Nov 3.4 08:32:53 10° W 08:36:55 31° NNW 08:40:56 10° NE visible
07 Nov 3.4 10:10:23 10° WNW 10:14:25 31° N 10:18:26 10° ENE visible
07 Nov 3.4 11:47:53 10° NNW 11:51:55 31° NNE 11:55:56 10° E visible
07 Nov 3.4 13:25:23 10° N 13:29:24 31° NE 13:33:26 10° ESE visible
07 Nov 3.4 15:02:53 10° NNE 15:06:54 31° E 15:10:56 10° SE visible
07 Nov 3.4 16:40:23 10° NE 16:44:24 31° ESE 16:48:26 10° SSE visible
07 Nov 3.4 18:17:52 10° ENE 18:21:54 31° SE 18:25:56 10° SSW visible
07 Nov 3.4 19:55:22 10° E 19:59:24 31° SSE 20:03:26 10° SW visible
07 Nov 3.4 21:32:52 10° ESE 21:36:54 31° S 21:40:56 10° WSW visible
07 Nov 3.4 23:10:22 10° SE 23:14:24 31° SSW 23:18:25 10° W visible
08 Nov 3.4 00:47:52 10° SSE 00:51:54 31° SW 00:55:55 10° WNW visible
08 Nov 3.4 02:25:22 10° S 02:29:23 31° WSW 02:33:25 10° NW visible
08 Nov 3.4 04:02:52 10° SSW 04:06:53 31° W 04:10:55 10° NNW visible
08 Nov 3.4 05:40:22 10° SW 05:44:23 31° WNW 05:48:25 10° N visible
08 Nov 3.4 07:17:51 10° W 07:21:53 31° NW 07:25:55 10° NNE visible
08 Nov 3.4 08:55:21 10° WNW 08:59:23 31° NNW 09:03:25 10° NE visible
08 Nov 3.4 10:32:51 10° NW 10:36:53 31° NNE 10:40:55 10° ENE visible
08 Nov 3.4 12:10:21 10° NNW 12:14:23 31° NE 12:18:25 10° E visible
08 Nov 3.4 13:47:51 10° N 13:51:53 31° ENE 13:55:54 10° SE visible
08 Nov 3.4 15:25:21 10° NNE 15:29:23 31° E 15:33:24 10° SSE visible
08 Nov 3.4 17:02:51 10° NE 17:06:52 31° ESE 17:10:54 10° S visible
08 Nov 3.4 18:40:21 10° ENE 18:44:22 31° SE 18:48:24 10° SSW visible
08 Nov 3.4 20:17:51 10° E 20:21:52 31° SSE 20:25:54 10° SW visible
08 Nov 3.4 21:55:20 10° ESE 21:59:22 31° S 22:03:24 10° WSW visible
08 Nov 3.4 23:32:50 10° SE 23:36:52 31° SSW 23:40:54 10° W visible
